www.pogodaiklimat.ru

Погода и климат >> Архив погоды >> Италия >> Дечимоманну


ПОГОДА в Дечимоманну

  • Прогноз погоды в Дечимоманну
  • Монитор погоды в Дечимоманну

АРХИВ ПОГОДЫ в Дечимоманну

Время (UTC), дата Ветер
(напр.,м/с)
 
Видим.   Явления Облачность Т
(С)
Тd
(С)
f
(%)
Тe
(С)
Тes
(С)
Комфортность P
(гПа)
Po
(гПа)
Тmin
(С)
Tmax
(С)
R
(мм)
R24
(мм)
S
(см)
18 11.08 ЮВ 5 20 км ясно +30.8 +23.0 63 +41 +41 опасность
перегрева
1012.4 1009.8 +36.4
21 11.08 В 3 20 км ясно +26.8 +23.1 80 +36 +36 очень
душно
1013.6 1010.9
00 12.08 С 1 20 км ясно +26.0 +22.3 80 +34 +34 очень
душно
1013.5 1010.8
03 12.08 ЮЗ 1 20 км ясно +24.0 +20.1 79 +30 +30 очень
душно
1012.8 1010.1
06 12.08 СВ 1 20 км ясно +23.0 +18.6 76 +29 +31 очень
душно
1012.3 1009.6 +22.8
09 12.08 ЮВ 3 20 км 3/0
[Ci fib]
+35.0 +22.3 48 +44 +55 опасность
перегрева
1012.2 1009.6
12 12.08 ЮВ 7 20 км ясно +38.2 +15.3 26 +40 +45 очень
душно
1011.2 1008.6
15 12.08 Ю 6 20 км ясно +36.8 +23.6 47 +48 +51 опасность
перегрева
1010.5 1007.8
18 12.08 С 7 30 км 1/0
[Ac trans Ci fib]
+31.4 +27.7 81 +51 +51 опасность
перегрева
1010.8 1008.1 +38.4
21 12.08 С 2 12 км 6/0
[Ac trans Ci fib]
+28.0 +24.8 83 +40 +40 очень
душно
1011.3 1008.6
00 13.08 СЗ 4 12 км 9/0
[Ac trans Ci fib]
+27.0 +23.3 80 +36 +36 очень
душно
1011.7 1009.0
03 13.08 С 4 12 км 9/0
[Ac trans Ci fib]
+27.0 +23.5 81 +37 +37 очень
душно
1011.6 1008.9
06 13.08 СЗ 4 14 км 6/3 300 м
[St Ci fib]
+26.4 +23.1 82 +35 +36 очень
душно
1011.2 1008.5 +25.8
09 13.08 СЗ 8 20 км 5/0
[Ci fib]
+31.0 +22.3 60 +40 +42 очень
душно
1012.5 1009.8
12 13.08 СЗ 11 20 км 5/3 900 м
[Sc As trans Ci fib]
+33.0 +21.5 51 +41 +41 опасность
перегрева
1012.4 1009.7
15 13.08 СЗ 11 20 км 8/3 900 м
[Sc Ac As Ci fib]
+29.6 +17.4 48 +34 +34 очень
душно
1012.7 1010.0
18 13.08 СЗ 7 20 км 8/3 900 м
[Cu hum Ac trans]
+30.8 +25.2 72 +45 +45 опасность
перегрева
1012.6 1010.0 +33.2 0.0
21 13.08 СЗ 7 20 км 4/0
[As trans]
+23.8 +19.1 75 +29 +29 душно 1014.2 1011.5
00 14.08 С 2 20 км ясно +22.0 +18.8 82 +27 +27 душно 1015.1 1012.3
03 14.08 С 1 20 км ясно +21.2 +18.6 85 +26 +26 душно 1014.7 1012.0
06 14.08 СЗ 3 20 км ясно +21.6 +18.0 80 +26 +27 душно 1014.7 1012.0 +19.8
09 14.08 СЗ 10 20 км 4/4 900 м
[Cu hum]
+27.0 +17.8 57 +31 +32 душно 1015.5 1012.8
12 14.08 СЗ 10 20 км 3/3 1050 м
[Cu hum]
+29.0 +14.4 41 +31 +32 жарко 1015.6 1012.9
15 14.08 СЗ 11 20 км 1/0 1050 м
[]
+28.4 +17.6 52 +33 +33 очень
душно
1015.6 1012.9
18 14.08 СЗ 9 25 км ясно +25.8 +19.9 70 +32 +32 очень
душно
1015.5 1012.8 +29.6
21 14.08 СЗ 6 18 км 5/0
[Ci fib]
+23.8 +20.5 82 +30 +30 очень
душно
1016.2 1013.4
00 15.08 СЗ 4 15 км 4/1 600 м
[Cu med, cong Ci fib]
+23.0 +19.6 81 +30 +30 очень
душно
1016.6 1013.9
03 15.08 С 3 16 км ясно +21.2 +18.0 82 +25 +25 комфорт 1016.2 1013.5
06 15.08 С 3 20 км ясно +21.0 +17.4 80 +25 +27 комфорт 1016.3 1013.6 +19.4
09 15.08 С 6 30 км ясно +27.0 +18.6 60 +32 +37 очень
душно
1016.4 1013.7
12 15.08 СЗ 8 30 км ясно +31.8 +15.7 38 +34 +38 душно 1015.3 1012.6
15 15.08 СЗ 10 30 км 1/1 900 м
[Cu hum]
+31.0 +14.2 36 +33 +33 душно 1014.8 1012.1
18 15.08 СЗ 8 20 км ясно +28.8 +18.0 52 +33 +33 очень
душно
1014.9 1012.2 +32.2
21 15.08 СЗ 7 20 км ясно +25.2 +21.1 78 +32 +32 очень
душно
1016.7 1013.9
00 16.08 ЮВ 2 15 км ясно +23.4 +20.3 83 +31 +31 очень
душно
1016.8 1014.1
03 16.08 С 2 20 км ясно +22.0 +18.4 80 +27 +27 душно 1015.8 1013.0
06 16.08 С 2 20 км 1/1 2000 м
[Cu hum]
+22.6 +19.0 80 +28 +30 душно 1016.4 1013.6 +21.4
09 16.08 СЗ 8 20 км 3/3 900 м
[Cu hum]
+28.6 +20.1 60 +35 +36 очень
душно
1016.5 1013.8
12 16.08 СЗ 9 20 км ясно +30.6 +15.5 40 +33 +35 душно 1015.9 1013.2
15 16.08 С 9 20 км ясно +30.6 +16.6 43 +34 +35 очень
душно
1015.0 1012.4
18 16.08 СЗ 9 30 км 1/0
[Ci fib]
+26.0 +20.6 72 +32 +32 очень
душно
1014.8 1012.1 +31.8
21 16.08 С 3 20 км ясно +22.4 +19.2 82 +28 +28 душно 1016.6 1013.9
00 17.08 С 4 20 км ясно +20.8 +17.6 82 +25 +25 комфорт 1016.7 1013.9
03 17.08 СЗ 2 30 км ясно +18.4 +15.3 82 +19 +19 1015.8 1013.0
06 17.08 З 1 25 км ясно +18.0 +14.9 82 +19 +21 1016.2 1013.4 +16.2
09 17.08 СЗ 3 25 км 1/0 600 м
[]
+28.0 +14.3 43 +30 +40 жарко 1016.9 1014.2
12 17.08 ЮЗ 3 25 км 3/1 900 м
[Sc Ci fib]
+34.2 +3.9 15 +31 +45 жарко 1015.9 1013.2
15 17.08 ЮВ 5 25 км 3/1 900 м
[Sc Ci fib]
+31.4 +21.6 56 +40 +43 очень
душно
1015.3 1012.6
18 17.08 ЮВ 3 20 км 4/3 600 м
[Cu hum Ci fib]
+28.0 +24.4 81 +39 +39 очень
душно
1015.2 1012.5 +34.6
21 17.08 СВ 2 10 км ясно +24.2 +20.7 81 +30 +30 очень
душно
1015.7 1013.0
00 18.08 В 2 10 км ясно +22.8 +19.4 81 +29 +29 очень
душно
1015.9 1013.2
03 18.08 СВ 2 10 км ясно +21.2 +17.6 80 +25 +25 комфорт 1015.2 1012.5
06 18.08 СВ 1 12 км 5/5 180 м
[Cu hum]
+22.0 +18.4 80 +27 +28 душно 1015.2 1012.5 +20.2
09 18.08 Ю 4 25 км 1/1 900 м
[Cu hum]
+29.8 +22.8 66 +39 +47 очень
душно
1015.4 1012.7
12 18.08 ЮВ 8 20 км 3/3 1200 м
[Cu hum]
+31.2 +23.8 65 +43 +45 опасность
перегрева
1014.7 1012.1

 

Местоположение метеостанции Дечимоманну (Италия): широта 39.35 долгота 8.97 высота над уровнем моря 28 м.

В архиве по умолчанию представлена погода в Дечимоманну за последнюю неделю. Архивные данные за месяц целиком и за предыдущие месяцы, начиная с января 2011 года, Вы можете получить, выбрав интересующий диапазон дат из раскрывающегося списка и нажав кнопку "Ввод!".


*Определитесь, кто Вы:
робот инопланетянин человек

Внимание! Время в таблицах - всемирное. Для получения местного времени необходимо прибавить поправку, которая равна 1 ч.

Смотрите также архив погоды в соседних городах и на ближайших метеорологических станциях:

Погода на Капо Карбонара (Италия) (55 км)
Погода на Капо Фраска (Италия) (62 км)
Погода на Капо Беллависто (Италия) (91 км)
Погода на Капо Кацция (Италия) (152 км)
Погода в Альгеро (Италия) (154 км)
Погода в Ольвии (Италия) (179 км)
Погода на Мысе Пертюзато (Франция) (225 км)
Погода в Фигари (Франция) (239 км)
Погода в Бизерте (Тунис) (245 км)
Погода в Табарке (Тунис) (268 км)

Пояснения к столбцам:

Ветер - указаны скорость ветра в м/с - средняя за 10 мин, порывы в срок и между сроками (в фигурных скобках) и направление, откуда дует ветер: С - северный, СВ - северо-восточный, В - восточный, ЮВ - юго-восточный, Ю - южный, ЮЗ - юго-западный, З - западный, СЗ - северо-западный.
Видимость - горизонтальная дальность видимости в метрах или километрах. При видимости от 1 до 10 км при отсутствии осадков обычно наблюдается дымка, при ухудшении видимости до 1 км и менее - туман. В сухую погоду видимость может ухудшаться дымом, пылью или мглою.
Явления - указаны атмосферные явления, наблюдавшиеся в срок или в последний час перед сроком; фигурными скобками обозначены явления, наблюдавшиеся между сроками (за 1-3 часа до срока); квадратными скобками обозначены град или гололедные отложения с указанием их диаметра в мм.
Облачность - указаны через наклонную черту общая и нижняя облачность в баллах и высота нижней границы облаков в метрах; квадратными скобками обозначены формы облаков: Ci - перистые, Cs - перисто-слоистые, Cc - перисто-кучевые, Ac - высококучевые, As - высокослоистые, Sc - слоисто-кучевые, Ns - слоисто-дождевые, Cu - кучевые, Cb - кучево-дождевые. Подробнее классификацию облаков см. в Атласе облаков (PDF).
T - Температура воздуха - температура, измеренная на высоте 2 м над землей.
Td - Температура точки росы - температура, при понижении до которой содержащийся в воздухе водяной пар достигнет насыщения.
f - Относительная влажность воздуха - влажноcть воздуха, измеренная на высоте 2 м над землей.
Te - Эффективная температура - температура, которую ощущает одетый по сезону человек в тени. Характеристика душности погоды. При расчете учитывается влияние влажности воздуха и скорости ветра на теплоощущения человека.
Tes - Эффективная температура на солнце - температура, которую ощущает человек, с поправкой на солнечный нагрев. Характеристика знойности погоды. Зависит от высоты солнца над горизонтом, облачности и скорости ветра. Ночью, в пасмурную погоду, а также при ветре 12 м/с и более поправка равна нулю.
P - Атмосферное давление - приведенное к уровню моря атмосферное давление.
Po - Атмосферное давление - измеренное на уровне метеостанции атмосферное давление.
Tmin - Минимальная температура - минимум температуры воздуха на высоте 2 м над землей.
Tmax - Максимальная температура - максимум температуры воздуха на высоте 2 м над землей.
R - Количество осадков - Количество выпавших осадков за период времени, мм. При наведении курсора мыши на число - период времени, за который выпало указанное количество осадков.
R24 - Количество осадков - Количество выпавших осадков за 24 часа, мм.
S - Снежный покров - Высота снежного покрова, см. При наведении курсора мыши на число - состояние снежного покрова и степень покрытия местности в баллах.